Tracking 19717 objects as of 24-Jun-2019
HD Live streaming from Space Station
objects crossing your sky now

SL-16 DEB

Track SL-16 DEB now!
10-day predictions


NORAD ID: 28357
Int'l Code: 2004-021F
Perigee: 849.3 km
Apogee: 1,143.5 km
Inclination: 71.1 °
Period: 104.9 minutes
Semi major axis: 7367 km
RCS: 0.0866 m2 (small)
Launch date: June 10, 2004
Source: Commonwealth of Independent States (former USSR) (CIS)
Launch site: TYURATAM MISSILE AND SPACE COMPLEX (TTMTR)

Note: This is SATELLITE DEBRIS
aabbcc
Your satellite tracking list
Your tracking list is empty




NASA's NSSDC Master Catalog

Two Line Element Set (TLE):
1 28357U 04021F   19174.94636951 +.00000118 +00000-0 +14971-3 0  9992
2 28357 071.0751 059.6166 0199700 139.7678 322.6587 13.72876014752868
Source of the keplerian elements: AFSPC